TimePDT,TemperatureF,Dew PointF,Humidity,Sea Level PressureIn,VisibilityMPH,Wind Direction,Wind SpeedMPH,Gust SpeedMPH,PrecipitationIn,Events,Conditions,WindDirDegrees,DateUTC
12:53 AM,48.9,35.1,59,30.11,10.0,NNW,5.8,-,N/A,,Clear,330,2013-04-30 07:53:00
1:53 AM,48.0,35.1,61,30.13,10.0,NNW,3.5,-,N/A,,Clear,330,2013-04-30 08:53:00
2:53 AM,46.0,34.0,63,30.14,10.0,NNW,3.5,-,N/A,,Clear,340,2013-04-30 09:53:00
3:53 AM,44.1,34.0,68,30.15,10.0,Calm,Calm,-,N/A,,Clear,0,2013-04-30 10:53:00
4:53 AM,42.1,33.1,70,30.16,10.0,Calm,Calm,-,N/A,,Clear,0,2013-04-30 11:53:00
5:53 AM,42.1,32.0,67,30.19,10.0,NW,3.5,-,N/A,,Clear,310,2013-04-30 12:53:00
6:53 AM,39.9,32.0,73,30.22,10.0,Calm,Calm,-,N/A,,Scattered Clouds,0,2013-04-30 13:53:00
7:53 AM,43.0,32.0,65,30.24,10.0,Calm,Calm,-,N/A,,Scattered Clouds,0,2013-04-30 14:53:00
8:53 AM,46.0,30.9,56,30.24,10.0,NE,4.6,-,N/A,,Partly Cloudy,50,2013-04-30 15:53:00
9:53 AM,48.0,30.9,52,30.23,10.0,West,4.6,-,N/A,,Clear,260,2013-04-30 16:53:00
10:53 AM,51.1,30.0,44,30.22,10.0,Calm,Calm,-,N/A,,Clear,0,2013-04-30 17:53:00
11:53 AM,55.9,26.1,32,30.22,10.0,West,6.9,-,N/A,,Clear,260,2013-04-30 18:53:00
12:53 PM,57.9,26.1,30,30.20,10.0,Calm,Calm,-,N/A,,Clear,0,2013-04-30 19:53:00
1:53 PM,63.0,23.0,22,30.19,10.0,WNW,11.5,16.1,0.01,,Clear,290,2013-04-30 20:53:00
2:53 PM,64.0,21.0,19,30.19,10.0,NNW,6.9,19.6,N/A,,Clear,330,2013-04-30 21:53:00
3:53 PM,64.9,25.0,22,30.19,10.0,NNW,10.4,-,N/A,,Clear,340,2013-04-30 22:53:00
4:53 PM,62.6,24.8,24,30.20,10.0,NW,9.2,19.6,N/A,,Clear,310,2013-04-30 23:53:00
5:53 PM,64.0,25.0,23,30.21,10.0,North,11.5,-,N/A,,Clear,350,2013-05-01 00:53:00
6:53 PM,61.0,26.1,26,30.22,10.0,NNW,10.4,-,N/A,,Clear,340,2013-05-01 01:53:00
7:53 PM,57.2,26.6,31,30.24,10.0,NW,8.1,-,N/A,,Clear,320,2013-05-01 02:53:00
8:53 PM,53.1,27.0,37,30.27,10.0,North,8.1,-,N/A,,Clear,350,2013-05-01 03:53:00
9:53 PM,51.8,28.4,41,30.29,10.0,WNW,3.5,-,N/A,,Clear,290,2013-05-01 04:53:00
10:53 PM,48.0,28.9,48,30.31,10.0,Calm,Calm,-,N/A,,Clear,0,2013-05-01 05:53:00
11:53 PM,46.0,28.9,51,30.32,10.0,Calm,Calm,-,N/A,,Clear,0,2013-05-01 06:53:00